Time,TemperatureF,DewpointF,PressureIn,WindDirection,WindDirectionDegrees,WindSpeedMPH,WindSpeedGustMPH,Humidity,HourlyPrecipIn,Conditions,Clouds,dailyrainin,SolarRadiationWatts/m^2,SoftwareType,DateUTC
2013-01-23 00:00:00,36.1,22.8,30.29,West,263,0.0,0.0,58,0.00,,---,0.00,0.00,VWS V14.01,2013-01-23 05:00:00,
2013-01-23 00:02:00,36.0,22.7,30.29,West,263,0.0,0.0,58,0.00,,---,0.00,0.00,VWS V14.01,2013-01-23 05:02:00,
2013-01-23 00:03:00,36.0,22.7,30.29,West,263,0.0,0.0,58,0.00,,---,0.00,0.00,VWS V14.01,2013-01-23 05:03:00,
2013-01-23 00:06:00,35.7,22.4,30.29,West,263,0.0,0.0,58,0.00,,---,0.00,0.00,VWS V14.01,2013-01-23 05:06:00,
2013-01-23 00:11:00,35.5,22.2,30.29,West,263,0.0,0.0,58,0.00,,---,0.00,0.00,VWS V14.01,2013-01-23 05:11:00,
2013-01-23 00:19:00,35.1,21.8,30.29,West,263,0.0,0.0,58,0.00,,---,0.00,0.00,VWS V14.01,2013-01-23 05:19:00,
2013-01-23 00:24:00,34.9,22.4,30.29,West,263,0.0,0.0,60,0.00,,---,0.00,0.00,VWS V14.01,2013-01-23 05:24:00,
2013-01-23 00:29:00,34.6,23.3,30.29,West,263,0.0,0.0,63,0.00,,---,0.00,0.00,VWS V14.01,2013-01-23 05:29:00,
2013-01-23 00:34:00,34.1,22.8,30.28,West,263,0.0,0.0,63,0.00,,---,0.00,0.00,VWS V14.01,2013-01-23 05:34:00,
2013-01-23 00:40:00,33.7,22.5,30.28,West,263,0.0,0.0,63,0.00,,---,0.00,0.00,VWS V14.01,2013-01-23 05:40:00,
2013-01-23 00:45:00,33.4,22.5,30.29,West,263,0.0,0.0,64,0.00,,---,0.00,0.00,VWS V14.01,2013-01-23 05:45:00,
2013-01-23 00:50:00,33.2,22.7,30.29,West,263,0.0,0.0,65,0.00,,---,0.00,0.00,VWS V14.01,2013-01-23 05:50:00,
2013-01-23 00:55:00,32.8,22.7,30.28,West,263,0.0,0.0,66,0.00,,---,0.00,0.00,VWS V14.01,2013-01-23 05:55:00,
2013-01-23 01:01:00,32.5,22.4,30.29,West,263,0.0,0.0,66,0.00,,---,0.00,0.00,VWS V14.01,2013-01-23 06:01:00,
2013-01-23 01:06:00,32.3,22.2,30.29,West,263,0.0,0.0,66,0.00,,---,0.00,0.00,VWS V14.01,2013-01-23 06:06:00,
2013-01-23 01:11:00,32.2,22.1,30.29,West,263,0.0,0.0,66,0.00,,---,0.00,0.00,VWS V14.01,2013-01-23 06:11:00,
2013-01-23 01:16:00,32.1,22.4,30.29,West,263,0.0,0.0,67,0.00,,---,0.00,0.00,VWS V14.01,2013-01-23 06:16:00,
2013-01-23 01:21:00,31.9,22.2,30.29,West,263,0.0,0.0,67,0.00,,---,0.00,0.00,VWS V14.01,2013-01-23 06:21:00,
2013-01-23 01:26:00,31.8,22.5,30.29,West,263,0.0,0.0,68,0.00,,---,0.00,0.00,VWS V14.01,2013-01-23 06:26:00,
2013-01-23 01:32:00,31.6,22.3,30.29,West,263,0.0,0.0,68,0.00,,---,0.00,0.00,VWS V14.01,2013-01-23 06:32:00,
2013-01-23 01:37:00,31.5,22.2,30.29,West,263,0.0,0.0,68,0.00,,---,0.00,0.00,VWS V14.01,2013-01-23 06:37:00,
2013-01-23 01:42:00,31.4,21.7,30.29,West,263,0.0,0.0,67,0.00,,---,0.00,0.00,VWS V14.01,2013-01-23 06:42:00,
2013-01-23 01:47:00,31.4,21.7,30.30,West,263,0.0,0.0,67,0.00,,---,0.00,0.00,VWS V14.01,2013-01-23 06:47:00,
2013-01-23 01:52:00,31.4,22.1,30.29,West,263,0.0,0.0,68,0.00,,---,0.00,0.00,VWS V14.01,2013-01-23 06:52:00,
2013-01-23 01:57:00,31.4,22.1,30.30,West,263,0.0,0.0,68,0.00,,---,0.00,0.00,VWS V14.01,2013-01-23 06:57:00,
2013-01-23 02:03:00,31.5,21.8,30.29,West,263,0.0,0.0,67,0.00,,---,0.00,0.00,VWS V14.01,2013-01-23 07:03:00,
2013-01-23 02:08:00,31.6,21.6,30.30,West,263,0.0,0.0,66,0.00,,---,0.00,0.00,VWS V14.01,2013-01-23 07:08:00,
2013-01-23 02:13:00,31.7,21.3,30.30,West,263,0.0,0.0,65,0.00,,---,0.00,0.00,VWS V14.01,2013-01-23 07:13:00,
2013-01-23 02:18:00,32.1,21.7,30.31,West,263,0.0,0.0,65,0.00,,---,0.00,0.00,VWS V14.01,2013-01-23 07:18:00,
2013-01-23 02:23:00,32.2,21.4,30.31,West,263,0.0,0.0,64,0.00,,---,0.00,0.00,VWS V14.01,2013-01-23 07:23:00,
2013-01-23 02:28:00,32.4,21.6,30.31,West,263,0.0,0.0,64,0.00,,---,0.00,0.00,VWS V14.01,2013-01-23 07:28:00,
2013-01-23 02:33:00,32.6,21.4,30.30,West,263,0.0,0.0,63,0.00,,---,0.00,0.00,VWS V14.01,2013-01-23 07:33:00,
2013-01-23 02:38:00,32.7,21.5,30.30,West,263,0.0,0.0,63,0.00,,---,0.00,0.00,VWS V14.01,2013-01-23 07:38:00,
2013-01-23 02:43:00,32.8,21.2,30.31,West,263,0.0,0.0,62,0.00,,---,0.00,0.00,VWS V14.01,2013-01-23 07:43:00,
2013-01-23 02:49:00,32.9,21.3,30.31,West,263,0.0,0.0,62,0.00,,---,0.00,0.00,VWS V14.01,2013-01-23 07:49:00,
2013-01-23 02:54:00,33.0,21.4,30.31,West,263,0.0,0.0,62,0.00,,---,0.00,0.00,VWS V14.01,2013-01-23 07:54:00,
2013-01-23 02:59:00,33.0,21.4,30.31,West,263,0.0,0.0,62,0.00,,---,0.00,0.00,VWS V14.01,2013-01-23 07:59:00,
2013-01-23 03:04:00,32.8,21.6,30.31,West,263,0.0,0.0,63,0.00,,---,0.00,0.00,VWS V14.01,2013-01-23 08:04:00,
2013-01-23 03:09:00,32.7,21.9,30.31,West,263,0.0,0.0,64,0.00,,---,0.00,0.00,VWS V14.01,2013-01-23 08:09:00,
2013-01-23 03:14:00,32.6,21.8,30.31,West,263,0.0,0.0,64,0.00,,---,0.00,0.00,VWS V14.01,2013-01-23 08:14:00,
2013-01-23 03:19:00,32.4,21.2,30.31,West,263,0.0,0.0,63,0.00,,---,0.00,0.00,VWS V14.01,2013-01-23 08:19:00,
2013-01-23 03:25:00,32.2,21.0,30.32,West,263,0.0,0.0,63,0.00,,---,0.00,0.00,VWS V14.01,2013-01-23 08:25:00,
2013-01-23 03:30:00,32.1,20.9,30.32,West,263,0.0,0.0,63,0.00,,---,0.00,0.00,VWS V14.01,2013-01-23 08:30:00,
2013-01-23 03:35:00,31.9,21.1,30.32,West,263,0.0,0.0,64,0.00,,---,0.00,0.00,VWS V14.01,2013-01-23 08:35:00,
2013-01-23 03:40:00,31.7,21.3,30.32,West,263,0.0,0.0,65,0.00,,---,0.00,0.00,VWS V14.01,2013-01-23 08:40:00,
2013-01-23 03:45:00,31.5,20.7,30.32,West,263,0.0,0.0,64,0.00,,---,0.00,0.00,VWS V14.01,2013-01-23 08:45:00,
2013-01-23 03:50:00,31.3,20.5,30.31,West,263,0.0,0.0,64,0.00,,---,0.00,0.00,VWS V14.01,2013-01-23 08:50:00,
2013-01-23 03:55:00,31.1,21.1,30.31,West,263,0.0,0.0,66,0.00,,---,0.00,0.00,VWS V14.01,2013-01-23 08:55:00,
2013-01-23 04:01:00,30.9,20.9,30.31,West,263,0.0,0.0,66,0.00,,---,0.00,0.00,VWS V14.01,2013-01-23 09:01:00,
2013-01-23 04:06:00,30.7,20.7,30.31,West,263,0.0,0.0,66,0.00,,---,0.00,0.00,VWS V14.01,2013-01-23 09:06:00,
2013-01-23 04:11:00,30.6,21.0,30.31,West,263,0.0,0.0,67,0.00,,---,0.00,0.00,VWS V14.01,2013-01-23 09:11:00,
2013-01-23 04:17:00,30.4,20.8,30.31,West,263,0.0,0.0,67,0.00,,---,0.00,0.00,VWS V14.01,2013-01-23 09:17:00,
2013-01-23 04:22:00,30.2,20.9,30.31,West,263,0.0,0.0,68,0.00,,---,0.00,0.00,VWS V14.01,2013-01-23 09:22:00,
2013-01-23 04:27:00,30.0,20.7,30.32,West,263,0.0,0.0,68,0.00,,---,0.00,0.00,VWS V14.01,2013-01-23 09:27:00,
2013-01-23 04:32:00,29.8,20.5,30.31,West,263,0.0,0.0,68,0.00,,---,0.00,0.00,VWS V14.01,2013-01-23 09:32:00,
2013-01-23 04:37:00,29.6,20.4,30.31,West,263,0.0,0.0,68,0.00,,---,0.00,0.00,VWS V14.01,2013-01-23 09:37:00,
2013-01-23 04:42:00,29.3,20.4,30.31,West,263,0.0,0.0,69,0.00,,---,0.00,0.00,VWS V14.01,2013-01-23 09:42:00,
2013-01-23 04:47:00,29.1,20.9,30.32,West,263,0.0,0.0,71,0.00,,---,0.00,0.00,VWS V14.01,2013-01-23 09:47:00,
2013-01-23 04:52:00,28.9,20.7,30.32,West,263,0.0,0.0,71,0.00,,---,0.00,0.00,VWS V14.01,2013-01-23 09:52:00,
2013-01-23 04:57:00,28.7,20.5,30.32,West,263,0.0,0.0,71,0.00,,---,0.00,0.00,VWS V14.01,2013-01-23 09:57:00,
2013-01-23 05:02:00,28.4,20.9,30.32,West,263,0.0,0.0,73,0.00,,---,0.00,0.00,VWS V14.01,2013-01-23 10:02:00,
2013-01-23 05:07:00,28.1,21.2,30.32,West,263,0.0,0.0,75,0.00,,---,0.00,0.00,VWS V14.01,2013-01-23 10:07:00,
2013-01-23 05:12:00,27.9,21.3,30.32,West,263,0.0,0.0,76,0.00,,---,0.00,0.00,VWS V14.01,2013-01-23 10:12:00,
2013-01-23 05:17:00,27.8,21.5,30.32,West,263,0.0,0.0,77,0.00,,---,0.00,0.00,VWS V14.01,2013-01-23 10:17:00,
2013-01-23 05:23:00,27.7,21.4,30.32,West,263,0.0,0.0,77,0.00,,---,0.00,0.00,VWS V14.01,2013-01-23 10:23:00,
2013-01-23 05:28:00,27.6,21.4,30.32,West,263,0.0,0.0,77,0.00,,---,0.00,0.00,VWS V14.01,2013-01-23 10:28:00,
2013-01-23 05:33:00,27.4,21.1,30.32,West,263,0.0,0.0,77,0.00,,---,0.00,0.00,VWS V14.01,2013-01-23 10:33:00,
2013-01-23 05:38:00,27.3,21.1,30.32,West,263,0.0,0.0,77,0.00,,---,0.00,0.00,VWS V14.01,2013-01-23 10:38:00,
2013-01-23 05:44:00,27.2,21.0,30.33,West,263,0.0,0.0,77,0.00,,---,0.00,0.00,VWS V14.01,2013-01-23 10:44:00,
2013-01-23 05:49:00,27.2,21.0,30.33,West,263,0.0,0.0,77,0.00,,---,0.00,0.00,VWS V14.01,2013-01-23 10:49:00,
2013-01-23 05:54:00,27.3,21.1,30.33,West,263,0.0,0.0,77,0.00,,---,0.00,0.00,VWS V14.01,2013-01-23 10:54:00,
2013-01-23 05:59:00,27.3,21.1,30.33,West,263,0.0,0.0,77,0.00,,---,0.00,0.00,VWS V14.01,2013-01-23 10:59:00,
2013-01-23 06:04:00,27.4,21.1,30.33,West,263,0.0,0.0,77,0.00,,---,0.00,0.00,VWS V14.01,2013-01-23 11:04:00,
2013-01-23 06:09:00,27.3,21.1,30.34,West,263,0.0,0.0,77,0.00,,---,0.00,0.00,VWS V14.01,2013-01-23 11:09:00,
2013-01-23 06:14:00,27.3,21.1,30.34,West,263,0.0,0.0,77,0.00,,---,0.00,0.00,VWS V14.01,2013-01-23 11:14:00,
2013-01-23 06:20:00,27.2,20.6,30.33,West,263,0.0,0.0,76,0.00,,---,0.00,0.00,VWS V14.01,2013-01-23 11:20:00,
2013-01-23 06:25:00,27.2,20.6,30.33,West,263,0.0,0.0,76,0.00,,---,0.00,0.00,VWS V14.01,2013-01-23 11:25:00,
2013-01-23 06:30:00,27.2,20.6,30.33,West,263,0.0,0.0,76,0.00,,---,0.00,0.00,VWS V14.01,2013-01-23 11:30:00,
2013-01-23 06:35:00,27.1,20.2,30.34,West,263,0.0,0.0,75,0.00,,---,0.00,0.00,VWS V14.01,2013-01-23 11:35:00,
2013-01-23 06:40:00,27.0,20.1,30.34,West,263,0.0,0.0,75,0.00,,---,0.00,0.00,VWS V14.01,2013-01-23 11:40:00,
2013-01-23 06:45:00,27.0,19.8,30.34,West,263,0.0,0.0,74,0.00,,---,0.00,0.00,VWS V14.01,2013-01-23 11:45:00,
2013-01-23 06:50:00,27.0,20.1,30.35,West,263,0.0,0.0,75,0.00,,---,0.00,0.00,VWS V14.01,2013-01-23 11:50:00,
2013-01-23 06:55:00,26.9,20.0,30.34,West,263,0.0,0.0,75,0.00,,---,0.00,0.00,VWS V14.01,2013-01-23 11:55:00,
2013-01-23 07:01:00,26.9,20.0,30.34,West,263,0.0,0.0,75,0.00,,---,0.00,0.00,VWS V14.01,2013-01-23 12:01:00,
2013-01-23 07:06:00,26.9,19.7,30.34,West,263,0.0,0.0,74,0.00,,---,0.00,0.00,VWS V14.01,2013-01-23 12:06:00,
2013-01-23 07:12:00,26.9,20.0,30.34,West,263,0.0,0.0,75,0.00,,---,0.00,0.00,VWS V14.01,2013-01-23 12:12:00,
2013-01-23 07:17:00,26.9,20.0,30.35,West,263,0.0,0.0,75,0.00,,---,0.00,0.00,VWS V14.01,2013-01-23 12:17:00,
2013-01-23 07:22:00,26.9,20.0,30.35,West,263,0.0,0.0,75,0.00,,---,0.00,0.00,VWS V14.01,2013-01-23 12:22:00,
2013-01-23 07:27:00,26.9,20.0,30.35,West,263,0.0,0.0,75,0.00,,---,0.00,5.00,VWS V14.01,2013-01-23 12:27:00,
2013-01-23 07:32:00,26.8,20.0,30.35,West,263,0.0,0.0,75,0.00,,---,0.00,9.00,VWS V14.01,2013-01-23 12:32:00,
2013-01-23 07:37:00,26.7,19.9,30.36,West,263,0.0,0.0,75,0.00,,---,0.00,12.00,VWS V14.01,2013-01-23 12:37:00,
2013-01-23 07:43:00,26.7,19.9,30.36,West,263,0.0,0.0,75,0.00,,---,0.00,16.00,VWS V14.01,2013-01-23 12:43:00,
2013-01-23 07:48:00,26.7,20.2,30.36,West,263,0.0,0.0,76,0.00,,---,0.00,19.00,VWS V14.01,2013-01-23 12:48:00,
2013-01-23 07:53:00,26.8,20.3,30.36,West,263,0.0,0.0,76,0.00,,---,0.00,23.00,VWS V14.01,2013-01-23 12:53:00,
2013-01-23 07:58:00,26.8,20.3,30.36,West,263,0.0,0.0,76,0.00,,---,0.00,25.00,VWS V14.01,2013-01-23 12:58:00,
2013-01-23 08:03:00,26.9,20.7,30.36,West,263,0.0,0.0,77,0.00,,---,0.00,28.00,VWS V14.01,2013-01-23 13:03:00,
2013-01-23 08:08:00,27.0,20.8,30.36,West,263,0.0,0.0,77,0.00,,---,0.00,32.00,VWS V14.01,2013-01-23 13:08:00,
2013-01-23 08:13:00,27.3,21.1,30.37,West,263,0.0,0.0,77,0.00,,---,0.00,33.00,VWS V14.01,2013-01-23 13:13:00,
2013-01-23 08:18:00,27.5,21.5,30.37,West,263,0.0,0.0,78,0.00,,---,0.00,37.00,VWS V14.01,2013-01-23 13:18:00,
2013-01-23 08:23:00,28.1,21.5,30.37,West,263,0.0,0.0,76,0.00,,---,0.00,40.00,VWS V14.01,2013-01-23 13:23:00,
2013-01-23 08:28:00,28.8,21.9,30.37,West,263,0.0,0.0,75,0.00,,---,0.00,46.00,VWS V14.01,2013-01-23 13:28:00,
2013-01-23 08:34:00,29.4,23.7,30.38,West,263,0.0,0.0,79,0.00,,---,0.00,58.00,VWS V14.01,2013-01-23 13:34:00,
2013-01-23 08:39:00,30.0,24.3,30.38,West,263,0.0,0.0,79,0.00,,---,0.00,81.00,VWS V14.01,2013-01-23 13:39:00,
2013-01-23 08:44:00,30.5,24.2,30.37,West,263,0.0,0.0,77,0.00,,---,0.00,113.00,VWS V14.01,2013-01-23 13:44:00,
2013-01-23 08:49:00,31.6,23.0,30.38,West,266,0.0,2.0,70,0.00,,---,0.00,155.00,VWS V14.01,2013-01-23 13:49:00,
2013-01-23 08:54:00,32.5,22.8,30.38,West,266,0.0,0.0,67,0.00,,---,0.00,186.00,VWS V14.01,2013-01-23 13:54:00,
2013-01-23 08:59:00,33.2,22.4,30.38,West,267,0.0,1.0,64,0.00,,---,0.00,211.00,VWS V14.01,2013-01-23 13:59:00,
2013-01-23 09:04:00,34.0,22.4,30.38,West,267,0.0,1.0,62,0.00,,---,0.00,211.00,VWS V14.01,2013-01-23 14:04:00,
2013-01-23 09:09:00,35.0,23.3,30.38,West,267,0.0,0.0,62,0.00,,---,0.00,218.00,VWS V14.01,2013-01-23 14:09:00,
2013-01-23 09:14:00,35.6,22.7,30.38,WNW,282,0.0,0.0,59,0.00,,---,0.00,246.00,VWS V14.01,2013-01-23 14:14:00,
2013-01-23 09:19:00,36.2,22.9,30.38,WNW,282,0.0,0.0,58,0.00,,---,0.00,279.00,VWS V14.01,2013-01-23 14:19:00,
2013-01-23 09:24:00,36.7,23.3,30.38,WNW,282,0.0,0.0,58,0.00,,---,0.00,278.00,VWS V14.01,2013-01-23 14:24:00,
2013-01-23 09:30:00,36.6,21.5,30.38,NE,53,0.0,0.0,54,0.00,,---,0.00,269.00,VWS V14.01,2013-01-23 14:30:00,
2013-01-23 09:35:00,37.3,22.6,30.39,NE,54,0.0,1.0,55,0.00,,---,0.00,211.00,VWS V14.01,2013-01-23 14:35:00,
2013-01-23 09:40:00,37.9,22.8,30.39,NE,54,0.0,0.0,54,0.00,,---,0.00,246.00,VWS V14.01,2013-01-23 14:40:00,
2013-01-23 09:45:00,38.3,23.1,30.39,WNW,289,0.0,2.0,54,0.00,,---,0.00,279.00,VWS V14.01,2013-01-23 14:45:00,
2013-01-23 09:50:00,38.4,22.3,30.39,West,276,0.0,0.0,52,0.00,,---,0.00,308.00,VWS V14.01,2013-01-23 14:50:00,
2013-01-23 09:55:00,38.5,22.9,30.39,SW,232,0.0,0.0,53,0.00,,---,0.00,343.00,VWS V14.01,2013-01-23 14:55:00,
2013-01-23 10:00:00,38.6,21.6,30.39,SW,232,0.0,0.0,50,0.00,,---,0.00,385.00,VWS V14.01,2013-01-23 15:00:00,
2013-01-23 10:05:00,39.0,20.5,30.39,SW,232,0.0,3.0,47,0.00,,---,0.00,392.00,VWS V14.01,2013-01-23 15:05:00,
2013-01-23 10:10:00,39.2,20.7,30.39,SW,231,0.0,3.0,47,0.00,,---,0.00,376.00,VWS V14.01,2013-01-23 15:10:00,
2013-01-23 10:15:00,39.7,21.6,30.39,SW,226,0.0,2.0,48,0.00,,---,0.00,406.00,VWS V14.01,2013-01-23 15:15:00,
2013-01-23 10:20:00,40.0,20.4,30.39,SSW,196,0.0,4.0,45,0.00,,---,0.00,478.00,VWS V14.01,2013-01-23 15:20:00,
2013-01-23 10:25:00,40.3,20.1,30.39,SSW,197,0.0,4.0,44,0.00,,---,0.00,501.00,VWS V14.01,2013-01-23 15:25:00,
2013-01-23 10:30:00,40.5,20.3,30.39,SSW,213,0.0,4.0,44,0.00,,---,0.00,448.00,VWS V14.01,2013-01-23 15:30:00,
2013-01-23 10:36:00,40.9,21.7,30.39,SSW,211,0.0,0.0,46,0.00,,---,0.00,457.00,VWS V14.01,2013-01-23 15:36:00,
2013-01-23 10:41:00,41.3,20.5,30.39,SSW,211,0.0,7.0,43,0.00,,---,0.00,512.00,VWS V14.01,2013-01-23 15:41:00,
2013-01-23 10:46:00,41.3,21.0,30.39,SW,235,0.0,1.0,44,0.00,,---,0.00,506.00,VWS V14.01,2013-01-23 15:46:00,
2013-01-23 10:51:00,42.1,21.8,30.39,SW,235,0.0,5.0,44,0.00,,---,0.00,487.00,VWS V14.01,2013-01-23 15:51:00,
2013-01-23 10:56:00,42.7,22.3,30.39,WSW,246,0.0,4.0,44,0.00,,---,0.00,462.00,VWS V14.01,2013-01-23 15:56:00,
2013-01-23 11:01:00,43.0,22.0,30.38,WSW,244,0.0,2.0,43,0.00,,---,0.00,478.00,VWS V14.01,2013-01-23 16:01:00,
2013-01-23 11:06:00,43.8,23.3,30.38,West,259,4.0,7.0,44,0.00,,---,0.00,485.00,VWS V14.01,2013-01-23 16:06:00,
2013-01-23 11:11:00,43.8,21.6,30.37,SW,235,0.0,5.0,41,0.00,,---,0.00,510.00,VWS V14.01,2013-01-23 16:11:00,
2013-01-23 11:16:00,43.9,21.2,30.38,WNW,284,0.0,5.0,40,0.00,,---,0.00,543.00,VWS V14.01,2013-01-23 16:16:00,
2013-01-23 11:21:00,44.1,22.5,30.38,West,281,3.0,3.0,42,0.00,,---,0.00,584.00,VWS V14.01,2013-01-23 16:21:00,
2013-01-23 11:26:00,44.4,22.8,30.37,NNW,336,0.0,7.0,42,0.00,,---,0.00,573.00,VWS V14.01,2013-01-23 16:26:00,
2013-01-23 11:31:00,44.7,21.9,30.37,WSW,248,0.0,6.0,40,0.00,,---,0.00,596.00,VWS V14.01,2013-01-23 16:31:00,
2013-01-23 11:36:00,44.9,22.1,30.36,SW,236,9.0,10.0,40,0.00,,---,0.00,536.00,VWS V14.01,2013-01-23 16:36:00,
2013-01-23 11:41:00,45.1,22.2,30.37,WSW,248,2.0,6.0,40,0.00,,---,0.00,520.00,VWS V14.01,2013-01-23 16:41:00,
2013-01-23 11:46:00,45.7,23.4,30.36,NNE,28,1.0,5.0,41,0.00,,---,0.00,466.00,VWS V14.01,2013-01-23 16:46:00,
2013-01-23 11:51:00,46.6,23.0,30.36,WNW,292,3.0,9.0,39,0.00,,---,0.00,406.00,VWS V14.01,2013-01-23 16:51:00,
2013-01-23 11:56:00,46.4,22.2,30.35,West,269,0.0,7.0,38,0.00,,---,0.00,420.00,VWS V14.01,2013-01-23 16:56:00,
2013-01-23 12:01:00,46.7,22.5,30.35,WNW,293,0.0,4.0,38,0.00,,---,0.00,387.00,VWS V14.01,2013-01-23 17:01:00,
2013-01-23 12:06:00,47.5,23.2,30.35,West,265,2.0,7.0,38,0.00,,---,0.00,510.00,VWS V14.01,2013-01-23 17:06:00,
2013-01-23 12:11:00,48.1,22.4,30.35,West,279,7.0,12.0,36,0.00,,---,0.00,617.00,VWS V14.01,2013-01-23 17:11:00,
2013-01-23 12:16:00,48.3,22.6,30.34,NNE,13,5.0,8.0,36,0.00,,---,0.00,647.00,VWS V14.01,2013-01-23 17:16:00,
2013-01-23 12:21:00,48.3,22.6,30.34,West,266,1.0,6.0,36,0.00,,---,0.00,645.00,VWS V14.01,2013-01-23 17:21:00,
2013-01-23 12:26:00,48.9,23.8,30.33,SSW,203,6.0,7.0,37,0.00,,---,0.00,642.00,VWS V14.01,2013-01-23 17:26:00,
2013-01-23 12:31:00,49.5,25.0,30.33,NW,325,2.0,11.0,38,0.00,,---,0.00,652.00,VWS V14.01,2013-01-23 17:31:00,
2013-01-23 12:36:00,49.7,23.9,30.33,WNW,300,4.0,8.0,36,0.00,,---,0.00,670.00,VWS V14.01,2013-01-23 17:36:00,
2013-01-23 12:41:00,49.9,24.7,30.33,WSW,250,4.0,7.0,37,0.00,,---,0.00,663.00,VWS V14.01,2013-01-23 17:41:00,
2013-01-23 12:47:00,50.5,26.5,30.31,WSW,240,4.0,4.0,39,0.00,,---,0.00,650.00,VWS V14.01,2013-01-23 17:47:00,
2013-01-23 12:52:00,51.3,26.6,30.31,WSW,253,8.0,8.0,38,0.00,,---,0.00,659.00,VWS V14.01,2013-01-23 17:52:00,
2013-01-23 12:57:00,51.4,27.3,30.31,West,259,7.0,8.0,39,0.00,,---,0.00,666.00,VWS V14.01,2013-01-23 17:57:00,
2013-01-23 13:02:00,52.0,27.8,30.30,SW,231,6.0,8.0,39,0.00,,---,0.00,666.00,VWS V14.01,2013-01-23 18:02:00,
2013-01-23 13:07:00,52.2,28.0,30.30,WNW,287,11.0,12.0,39,0.00,,---,0.00,654.00,VWS V14.01,2013-01-23 18:07:00,
2013-01-23 13:12:00,52.7,29.7,30.29,West,274,10.0,12.0,41,0.00,,---,0.00,649.00,VWS V14.01,2013-01-23 18:12:00,
2013-01-23 13:17:00,53.0,29.3,30.29,WNW,294,9.0,14.0,40,0.00,,---,0.00,640.00,VWS V14.01,2013-01-23 18:17:00,
2013-01-23 13:22:00,52.8,29.2,30.29,NW,311,3.0,6.0,40,0.00,,---,0.00,631.00,VWS V14.01,2013-01-23 18:22:00,
2013-01-23 13:27:00,53.0,29.3,30.28,West,275,7.0,8.0,40,0.00,,---,0.00,635.00,VWS V14.01,2013-01-23 18:27:00,
2013-01-23 13:32:00,53.2,28.9,30.28,West,263,7.0,10.0,39,0.00,,---,0.00,642.00,VWS V14.01,2013-01-23 18:32:00,
2013-01-23 13:37:00,53.5,28.5,30.28,WSW,244,11.0,15.0,38,0.00,,---,0.00,636.00,VWS V14.01,2013-01-23 18:37:00,
2013-01-23 13:42:00,53.2,28.9,30.27,West,259,5.0,8.0,39,0.00,,---,0.00,626.00,VWS V14.01,2013-01-23 18:42:00,
2013-01-23 13:47:00,53.4,29.1,30.27,West,268,5.0,8.0,39,0.00,,---,0.00,543.00,VWS V14.01,2013-01-23 18:47:00,
2013-01-23 13:52:00,53.5,29.2,30.27,West,271,11.0,12.0,39,0.00,,---,0.00,568.00,VWS V14.01,2013-01-23 18:52:00,
2013-01-23 13:57:00,53.2,28.9,30.27,West,279,5.0,7.0,39,0.00,,---,0.00,439.00,VWS V14.01,2013-01-23 18:57:00,
2013-01-23 14:02:00,53.3,29.6,30.26,West,269,7.0,13.0,40,0.00,,---,0.00,617.00,VWS V14.01,2013-01-23 19:02:00,
2013-01-23 14:08:00,53.2,28.9,30.26,NW,315,4.0,9.0,39,0.00,,---,0.00,438.00,VWS V14.01,2013-01-23 19:08:00,
2013-01-23 14:13:00,53.0,30.0,30.25,WNW,282,7.0,9.0,41,0.00,,---,0.00,418.00,VWS V14.01,2013-01-23 19:13:00,
2013-01-23 14:18:00,53.3,29.6,30.25,WSW,244,9.0,17.0,40,0.00,,---,0.00,387.00,VWS V14.01,2013-01-23 19:18:00,
2013-01-23 14:23:00,53.5,29.8,30.25,WSW,240,15.0,15.0,40,0.00,,---,0.00,385.00,VWS V14.01,2013-01-23 19:23:00,
2013-01-23 14:28:00,53.6,29.9,30.25,WSW,250,8.0,12.0,40,0.00,,---,0.00,417.00,VWS V14.01,2013-01-23 19:28:00,
2013-01-23 14:33:00,54.2,30.4,30.25,West,270,6.0,10.0,40,0.00,,---,0.00,355.00,VWS V14.01,2013-01-23 19:33:00,
2013-01-23 14:38:00,54.5,30.7,30.25,WSW,257,9.0,9.0,40,0.00,,---,0.00,450.00,VWS V14.01,2013-01-23 19:38:00,
2013-01-23 14:43:00,54.3,30.5,30.24,NW,306,3.0,13.0,40,0.00,,---,0.00,343.00,VWS V14.01,2013-01-23 19:43:00,
2013-01-23 14:48:00,54.6,31.4,30.24,West,281,4.0,6.0,41,0.00,,---,0.00,355.00,VWS V14.01,2013-01-23 19:48:00,
2013-01-23 14:53:00,54.9,30.4,30.24,West,267,10.0,12.0,39,0.00,,---,0.00,387.00,VWS V14.01,2013-01-23 19:53:00,
2013-01-23 14:58:00,54.8,30.3,30.24,WSW,250,7.0,12.0,39,0.00,,---,0.00,359.00,VWS V14.01,2013-01-23 19:58:00,
2013-01-23 15:03:00,54.7,30.9,30.25,WNW,293,7.0,7.0,40,0.00,,---,0.00,315.00,VWS V14.01,2013-01-23 20:03:00,
2013-01-23 15:08:00,54.6,30.2,30.24,WNW,291,6.0,8.0,39,0.00,,---,0.00,322.00,VWS V14.01,2013-01-23 20:08:00,
2013-01-23 15:13:00,55.0,31.1,30.24,WSW,242,4.0,7.0,40,0.00,,---,0.00,341.00,VWS V14.01,2013-01-23 20:13:00,
2013-01-23 15:18:00,55.3,31.4,30.24,West,281,8.0,15.0,40,0.00,,---,0.00,374.00,VWS V14.01,2013-01-23 20:18:00,
2013-01-23 15:24:00,55.1,30.6,30.24,West,266,10.0,16.0,39,0.00,,---,0.00,387.00,VWS V14.01,2013-01-23 20:24:00,
2013-01-23 15:29:00,55.1,31.2,30.24,West,273,8.0,12.0,40,0.00,,---,0.00,357.00,VWS V14.01,2013-01-23 20:29:00,
2013-01-23 15:34:00,55.1,31.2,30.24,WSW,240,6.0,11.0,40,0.00,,---,0.00,380.00,VWS V14.01,2013-01-23 20:34:00,
2013-01-23 15:39:00,55.5,31.6,30.24,West,259,7.0,11.0,40,0.00,,---,0.00,178.00,VWS V14.01,2013-01-23 20:39:00,
2013-01-23 15:44:00,55.5,31.6,30.24,West,263,8.0,8.0,40,0.00,,---,0.00,336.00,VWS V14.01,2013-01-23 20:44:00,
2013-01-23 15:49:00,55.6,31.7,30.24,WNW,290,5.0,11.0,40,0.00,,---,0.00,330.00,VWS V14.01,2013-01-23 20:49:00,
2013-01-23 15:54:00,55.5,31.6,30.24,West,261,8.0,12.0,40,0.00,,---,0.00,325.00,VWS V14.01,2013-01-23 20:54:00,
2013-01-23 15:59:00,55.4,31.5,30.24,West,267,11.0,14.0,40,0.00,,---,0.00,283.00,VWS V14.01,2013-01-23 20:59:00,
2013-01-23 16:04:00,55.3,32.0,30.24,SW,220,8.0,10.0,41,0.00,,---,0.00,234.00,VWS V14.01,2013-01-23 21:04:00,
2013-01-23 16:09:00,55.2,31.9,30.24,SW,236,5.0,8.0,41,0.00,,---,0.00,239.00,VWS V14.01,2013-01-23 21:09:00,
2013-01-23 16:14:00,55.4,31.5,30.24,West,259,7.0,9.0,40,0.00,,---,0.00,248.00,VWS V14.01,2013-01-23 21:14:00,
2013-01-23 16:19:00,55.4,31.5,30.24,West,262,11.0,11.0,40,0.00,,---,0.00,237.00,VWS V14.01,2013-01-23 21:19:00,
2013-01-23 16:24:00,55.4,31.5,30.24,WSW,250,9.0,14.0,40,0.00,,---,0.00,216.00,VWS V14.01,2013-01-23 21:24:00,
2013-01-23 16:30:00,55.3,30.8,30.23,West,268,4.0,11.0,39,0.00,,---,0.00,195.00,VWS V14.01,2013-01-23 21:30:00,
2013-01-23 16:35:00,55.1,31.2,30.23,WSW,248,7.0,10.0,40,0.00,,---,0.00,178.00,VWS V14.01,2013-01-23 21:35:00,
2013-01-23 16:40:00,55.0,31.8,30.23,SSW,206,9.0,10.0,41,0.00,,---,0.00,160.00,VWS V14.01,2013-01-23 21:40:00,
2013-01-23 16:45:00,54.8,31.0,30.23,WSW,248,7.0,9.0,40,0.00,,---,0.00,141.00,VWS V14.01,2013-01-23 21:45:00,
2013-01-23 16:50:00,54.7,31.5,30.23,SW,227,5.0,8.0,41,0.00,,---,0.00,121.00,VWS V14.01,2013-01-23 21:50:00,
2013-01-23 16:55:00,54.6,31.4,30.22,WSW,253,3.0,12.0,41,0.00,,---,0.00,98.00,VWS V14.01,2013-01-23 21:55:00,
2013-01-23 17:00:00,54.5,31.3,30.23,WSW,257,5.0,12.0,41,0.00,,---,0.00,81.00,VWS V14.01,2013-01-23 22:00:00,
2013-01-23 17:05:00,54.2,31.0,30.23,SW,229,6.0,13.0,41,0.00,,---,0.00,67.00,VWS V14.01,2013-01-23 22:05:00,
2013-01-23 17:10:00,54.0,30.9,30.23,WSW,238,5.0,10.0,41,0.00,,---,0.00,51.00,VWS V14.01,2013-01-23 22:10:00,
2013-01-23 17:15:00,53.8,30.7,30.23,WSW,246,5.0,8.0,41,0.00,,---,0.00,35.00,VWS V14.01,2013-01-23 22:15:00,
2013-01-23 17:20:00,53.5,31.0,30.23,WSW,253,6.0,9.0,42,0.00,,---,0.00,28.00,VWS V14.01,2013-01-23 22:20:00,
2013-01-23 17:26:00,53.2,30.7,30.23,WSW,237,3.0,8.0,42,0.00,,---,0.00,21.00,VWS V14.01,2013-01-23 22:26:00,
2013-01-23 17:31:00,52.9,30.5,30.22,SW,236,5.0,7.0,42,0.00,,---,0.00,18.00,VWS V14.01,2013-01-23 22:31:00,
2013-01-23 17:36:00,52.6,30.8,30.22,SW,233,3.0,6.0,43,0.00,,---,0.00,14.00,VWS V14.01,2013-01-23 22:36:00,
2013-01-23 17:41:00,52.2,30.4,30.22,SW,221,2.0,6.0,43,0.00,,---,0.00,9.00,VWS V14.01,2013-01-23 22:41:00,
2013-01-23 17:46:00,51.9,30.7,30.22,SW,222,0.0,3.0,44,0.00,,---,0.00,5.00,VWS V14.01,2013-01-23 22:46:00,
2013-01-23 17:51:00,51.5,30.9,30.22,SW,221,0.0,3.0,45,0.00,,---,0.00,0.00,VWS V14.01,2013-01-23 22:51:00,
2013-01-23 17:56:00,51.1,30.5,30.23,SW,221,0.0,1.0,45,0.00,,---,0.00,0.00,VWS V14.01,2013-01-23 22:56:00,
2013-01-23 18:01:00,50.8,30.8,30.23,SW,221,0.0,0.0,46,0.00,,---,0.00,0.00,VWS V14.01,2013-01-23 23:01:00,
2013-01-23 18:06:00,50.4,30.4,30.22,SW,221,0.0,0.0,46,0.00,,---,0.00,0.00,VWS V14.01,2013-01-23 23:06:00,
2013-01-23 18:11:00,50.0,31.1,30.22,SW,221,0.0,0.0,48,0.00,,---,0.00,0.00,VWS V14.01,2013-01-23 23:11:00,
2013-01-23 18:16:00,49.4,30.5,30.22,SW,221,0.0,0.0,48,0.00,,---,0.00,0.00,VWS V14.01,2013-01-23 23:16:00,
2013-01-23 18:21:00,48.9,30.6,30.22,SW,221,0.0,0.0,49,0.00,,---,0.00,0.00,VWS V14.01,2013-01-23 23:21:00,
2013-01-23 18:26:00,48.5,30.7,30.22,SW,221,0.0,0.0,50,0.00,,---,0.00,0.00,VWS V14.01,2013-01-23 23:26:00,
2013-01-23 18:31:00,48.1,30.8,30.22,SW,221,0.0,0.0,51,0.00,,---,0.00,0.00,VWS V14.01,2013-01-23 23:31:00,
2013-01-23 18:37:00,47.6,30.9,30.22,SW,221,0.0,0.0,52,0.00,,---,0.00,0.00,VWS V14.01,2013-01-23 23:37:00,
2013-01-23 18:42:00,47.2,30.5,30.22,SW,221,0.0,0.0,52,0.00,,---,0.00,0.00,VWS V14.01,2013-01-23 23:42:00,
2013-01-23 18:47:00,46.8,30.1,30.23,SW,221,0.0,0.0,52,0.00,,---,0.00,0.00,VWS V14.01,2013-01-23 23:47:00,
2013-01-23 18:52:00,46.5,30.3,30.23,SW,221,0.0,0.0,53,0.00,,---,0.00,0.00,VWS V14.01,2013-01-23 23:52:00,
2013-01-23 18:57:00,46.1,30.4,30.23,SW,221,0.0,0.0,54,0.00,,---,0.00,0.00,VWS V14.01,2013-01-23 23:57:00,
2013-01-23 19:02:00,45.8,30.1,30.23,SW,221,0.0,0.0,54,0.00,,---,0.00,0.00,VWS V14.01,2013-01-24 00:02:00,
2013-01-23 19:07:00,45.4,30.2,30.23,SW,221,0.0,0.0,55,0.00,,---,0.00,0.00,VWS V14.01,2013-01-24 00:07:00,
2013-01-23 19:12:00,45.1,29.9,30.22,SW,221,0.0,0.0,55,0.00,,---,0.00,0.00,VWS V14.01,2013-01-24 00:12:00,
2013-01-23 19:17:00,44.7,30.4,30.22,SW,221,0.0,0.0,57,0.00,,---,0.00,0.00,VWS V14.01,2013-01-24 00:17:00,
2013-01-23 19:22:00,44.4,30.1,30.23,SW,221,0.0,0.0,57,0.00,,---,0.00,0.00,VWS V14.01,2013-01-24 00:22:00,
2013-01-23 19:27:00,44.1,29.9,30.23,SW,221,0.0,0.0,57,0.00,,---,0.00,0.00,VWS V14.01,2013-01-24 00:27:00,
2013-01-23 19:32:00,43.7,29.9,30.22,SW,221,0.0,0.0,58,0.00,,---,0.00,0.00,VWS V14.01,2013-01-24 00:32:00,
2013-01-23 19:37:00,43.4,30.5,30.22,SW,221,0.0,0.0,60,0.00,,---,0.00,0.00,VWS V14.01,2013-01-24 00:37:00,
2013-01-23 19:42:00,43.0,30.1,30.22,SW,221,0.0,0.0,60,0.00,,---,0.00,0.00,VWS V14.01,2013-01-24 00:42:00,
2013-01-23 19:48:00,42.7,30.2,30.22,SW,221,0.0,0.0,61,0.00,,---,0.00,0.00,VWS V14.01,2013-01-24 00:48:00,
2013-01-23 19:53:00,42.4,30.3,30.21,SW,221,0.0,0.0,62,0.00,,---,0.00,0.00,VWS V14.01,2013-01-24 00:53:00,
2013-01-23 19:58:00,42.2,30.5,30.21,SW,221,0.0,0.0,63,0.00,,---,0.00,0.00,VWS V14.01,2013-01-24 00:58:00,
2013-01-23 20:03:00,42.0,30.3,30.21,SW,221,0.0,0.0,63,0.00,,---,0.00,0.00,VWS V14.01,2013-01-24 01:03:00,
2013-01-23 20:08:00,41.9,30.2,30.21,SW,221,0.0,0.0,63,0.00,,---,0.00,0.00,VWS V14.01,2013-01-24 01:08:00,
2013-01-23 20:13:00,41.8,30.5,30.21,SW,221,0.0,0.0,64,0.00,,---,0.00,0.00,VWS V14.01,2013-01-24 01:13:00,
2013-01-23 20:18:00,41.6,30.3,30.21,SW,221,0.0,0.0,64,0.00,,---,0.00,0.00,VWS V14.01,2013-01-24 01:18:00,
2013-01-23 20:23:00,41.5,30.6,30.20,SW,221,0.0,0.0,65,0.00,,---,0.00,0.00,VWS V14.01,2013-01-24 01:23:00,
2013-01-23 20:28:00,41.4,30.5,30.20,SW,221,0.0,0.0,65,0.00,,---,0.00,0.00,VWS V14.01,2013-01-24 01:28:00,
2013-01-23 20:33:00,41.3,30.4,30.20,SW,221,0.0,0.0,65,0.00,,---,0.00,0.00,VWS V14.01,2013-01-24 01:33:00,
2013-01-23 20:38:00,41.3,30.8,30.20,SW,221,0.0,0.0,66,0.00,,---,0.00,0.00,VWS V14.01,2013-01-24 01:38:00,
2013-01-23 20:43:00,41.2,30.7,30.20,SW,221,0.0,0.0,66,0.00,,---,0.00,0.00,VWS V14.01,2013-01-24 01:43:00,
2013-01-23 20:48:00,41.2,30.7,30.20,SW,221,0.0,0.0,66,0.00,,---,0.00,0.00,VWS V14.01,2013-01-24 01:48:00,
2013-01-23 20:53:00,41.2,30.7,30.20,SW,221,0.0,0.0,66,0.00,,---,0.00,0.00,VWS V14.01,2013-01-24 01:53:00,
2013-01-23 20:58:00,41.1,30.6,30.20,SW,221,0.0,0.0,66,0.00,,---,0.00,0.00,VWS V14.01,2013-01-24 01:58:00,
2013-01-23 21:03:00,41.1,31.0,30.20,SW,221,0.0,0.0,67,0.00,,---,0.00,0.00,VWS V14.01,2013-01-24 02:03:00,
2013-01-23 21:08:00,41.1,31.0,30.20,SW,221,0.0,0.0,67,0.00,,---,0.00,0.00,VWS V14.01,2013-01-24 02:08:00,
2013-01-23 21:13:00,41.0,30.9,30.20,SW,221,0.0,0.0,67,0.00,,---,0.00,0.00,VWS V14.01,2013-01-24 02:13:00,
2013-01-23 21:18:00,40.9,30.8,30.20,SW,221,0.0,0.0,67,0.00,,---,0.00,0.00,VWS V14.01,2013-01-24 02:18:00,
2013-01-23 21:23:00,40.7,31.0,30.20,SW,221,0.0,0.0,68,0.00,,---,0.00,0.00,VWS V14.01,2013-01-24 02:23:00,
2013-01-23 21:28:00,40.6,30.9,30.21,SW,221,0.0,0.0,68,0.00,,---,0.00,0.00,VWS V14.01,2013-01-24 02:28:00,
2013-01-23 21:34:00,40.5,30.8,30.21,SW,221,0.0,0.0,68,0.00,,---,0.00,0.00,VWS V14.01,2013-01-24 02:34:00,
2013-01-23 21:39:00,40.3,31.0,30.21,SW,221,0.0,0.0,69,0.00,,---,0.00,0.00,VWS V14.01,2013-01-24 02:39:00,
2013-01-23 21:44:00,40.1,30.8,30.21,SW,221,0.0,0.0,69,0.00,,---,0.00,0.00,VWS V14.01,2013-01-24 02:44:00,
2013-01-23 21:49:00,40.0,31.0,30.21,SW,221,0.0,0.0,70,0.00,,---,0.00,0.00,VWS V14.01,2013-01-24 02:49:00,
2013-01-23 21:54:00,39.8,31.2,30.20,SW,221,0.0,0.0,71,0.00,,---,0.00,0.00,VWS V14.01,2013-01-24 02:54:00,
2013-01-23 21:59:00,39.6,31.0,30.20,SW,221,0.0,0.0,71,0.00,,---,0.00,0.00,VWS V14.01,2013-01-24 02:59:00,
2013-01-23 22:04:00,39.5,30.9,30.20,SW,221,0.0,0.0,71,0.00,,---,0.00,0.00,VWS V14.01,2013-01-24 03:04:00,
2013-01-23 22:09:00,39.5,30.9,30.19,SW,221,0.0,0.0,71,0.00,,---,0.00,0.00,VWS V14.01,2013-01-24 03:09:00,
2013-01-23 22:14:00,39.5,31.2,30.19,SW,221,0.0,0.0,72,0.00,,---,0.00,0.00,VWS V14.01,2013-01-24 03:14:00,
2013-01-23 22:19:00,39.5,31.2,30.19,SW,221,0.0,0.0,72,0.00,,---,0.00,0.00,VWS V14.01,2013-01-24 03:19:00,
2013-01-23 22:24:00,39.5,30.9,30.19,SW,221,0.0,0.0,71,0.00,,---,0.00,0.00,VWS V14.01,2013-01-24 03:24:00,
2013-01-23 22:29:00,39.6,31.3,30.19,SW,221,0.0,0.0,72,0.00,,---,0.00,0.00,VWS V14.01,2013-01-24 03:29:00,
2013-01-23 22:34:00,39.6,31.3,30.18,SW,221,0.0,0.0,72,0.00,,---,0.00,0.00,VWS V14.01,2013-01-24 03:34:00,
2013-01-23 22:40:00,39.7,31.4,30.18,SW,221,2.0,4.0,72,0.00,,---,0.00,0.00,VWS V14.01,2013-01-24 03:40:00,
2013-01-23 22:45:00,39.8,31.9,30.18,SW,221,0.0,0.0,73,0.00,,---,0.00,0.00,VWS V14.01,2013-01-24 03:45:00,
2013-01-23 22:50:00,40.0,32.1,30.18,SW,221,2.0,3.0,73,0.00,,---,0.00,0.00,VWS V14.01,2013-01-24 03:50:00,
2013-01-23 22:55:00,40.2,32.6,30.18,SW,219,0.0,5.0,74,0.00,,---,0.00,0.00,VWS V14.01,2013-01-24 03:55:00,
2013-01-23 23:00:00,40.6,32.6,30.18,SW,219,0.0,3.0,73,0.00,,---,0.00,0.00,VWS V14.01,2013-01-24 04:00:00,
2013-01-23 23:05:00,40.9,32.9,30.18,SW,220,0.0,3.0,73,0.00,,---,0.00,0.00,VWS V14.01,2013-01-24 04:05:00,
2013-01-23 23:10:00,41.2,33.2,30.18,SW,220,0.0,1.0,73,0.00,,---,0.00,0.00,VWS V14.01,2013-01-24 04:10:00,
2013-01-23 23:15:00,41.4,33.1,30.18,SW,220,0.0,2.0,72,0.00,,---,0.00,0.00,VWS V14.01,2013-01-24 04:15:00,
2013-01-23 23:20:00,41.7,33.3,30.18,SW,227,2.0,4.0,72,0.00,,---,0.00,0.00,VWS V14.01,2013-01-24 04:20:00,
2013-01-23 23:25:00,42.0,33.3,30.18,SW,227,0.0,3.0,71,0.00,,---,0.00,0.00,VWS V14.01,2013-01-24 04:25:00,
2013-01-23 23:30:00,42.3,33.6,30.18,SW,227,0.0,4.0,71,0.00,,---,0.00,0.00,VWS V14.01,2013-01-24 04:30:00,
2013-01-23 23:35:00,42.7,34.0,30.17,SW,230,0.0,6.0,71,0.00,,---,0.00,0.00,VWS V14.01,2013-01-24 04:35:00,
2013-01-23 23:41:00,42.9,34.2,30.17,SW,227,4.0,5.0,71,0.00,,---,0.00,0.00,VWS V14.01,2013-01-24 04:41:00,
2013-01-23 23:46:00,43.2,34.5,30.18,SW,236,0.0,6.0,71,0.00,,---,0.00,0.00,VWS V14.01,2013-01-24 04:46:00,
2013-01-23 23:51:00,43.4,34.3,30.18,SW,236,2.0,4.0,70,0.00,,---,0.00,0.00,VWS V14.01,2013-01-24 04:51:00,
2013-01-23 23:56:00,43.5,34.4,30.18,SW,230,0.0,4.0,70,0.00,,---,0.00,0.00,VWS V14.01,2013-01-24 04:56:00,